Simultaneous Nadir Overpasses (SNOs) Predictions

Prediction of SNOs between GOES-16 and TERRA Satellite Orbit:

Table of predicted SNOs for the next 14.0 days since TLE Epoch: 11/30/2019
Index Date Time (GOES-16) GOES-16 Lat,Lon TERRA Lat,Lon Distance(km) Time Diff (sec)
1 11/30/2019 03:17:15 -0.01, -75.21 0.79, -71.60 411.52 80
2 11/30/2019 15:35:50 0.02, -75.22 0.35, -76.74 173.73 80
3 12/02/2019 15:26:19 0.03, -75.23 -0.30, -73.79 164.72 80
4 12/03/2019 03:45:03 -0.03, -75.23 -0.81, -78.98 425.61 80
5 12/05/2019 03:32:51 -0.04, -75.26 -0.22, -76.01 86.41 80
6 12/07/2019 03:23:20 -0.04, -75.29 0.44, -73.06 253.43 80
7 12/07/2019 15:41:56 0.04, -75.31 0.64, -78.22 331.35 80
8 12/09/2019 15:29:44 0.04, -75.34 0.04, -75.26 9.07 80
9 12/11/2019 15:20:13 0.04, -75.38 -0.63, -72.31 349.38 80
10 12/12/2019 03:38:56 -0.03, -75.38 -0.47, -77.50 240.47 80




NCC Satellite Simultaneous Nadir Overpasses (SNOs) Prediction Service
